Tracking 31027 objects as of 19-Jul-2025
HD Live streaming from Space Station
objects crossing your sky now

COSMOS 2251 DEB

Track COSMOS 2251 DEB now!
10-day predictions


NORAD ID: 34908
Int'l Code: 1993-036ADD
Perigee: 745.8 km
Apogee: 806.7 km
Inclination: 74.1 °
Period: 100.2 minutes
Semi major axis: 7147 km
RCS: 0.0114 m2 (small)
Launch date: June 16, 1993
Source: Commonwealth of Independent States (former USSR) (CIS)
Launch site: PLESETSK MISSILE AND SPACE COMPLEX (PKMTR)

Note: This is SATELLITE DEBRIS
Your satellite tracking list
COSMOS 830
Track 1 satellite(s)




NASA's NSSDC Master Catalog

Two Line Element Set (TLE):
1 34908U 93036ADD 25199.36237480  .00000827  00000-0  28601-3 0  9991
2 34908  74.0586 294.3152 0042583 350.1804  74.1515 14.36787225851625
Source of the keplerian elements: AFSPC